sat.trackr.live / text

‹ back to catalog

SAUDICOMSAT 3

NORAD 31125 · 2007-012J

PAYLOAD ACTIVE UNKNOWN

§ Identity

Operator
Country
SAUD
Launch date
2007-04-17
Launch site
TYMSC
Launch vehicle
Mass (kg)
RCS (m²)
0.07

External: N2YO · Heavens-Above · Gunter

§ Orbital elements

Epoch: 2026-05-25T04:29:10.797792Z

Period
97.92 min
Inclination
98.3132°
Eccentricity
0.0040263
Mean motion
14.70662189 rev/d
Perigee alt
630.6 km
Apogee alt
687.3 km
Semi-major
7,037.1 km
B*
1.1712e-4
RAAN
120.1535°
Arg perigee
123.5904°
Mean anomaly
236.9155°
Rev number
2,144

§ Raw data

SAUDICOMSAT 31 31125U 07012J   26145.18693053  .00000668  00000+0  11712-3 0  99992 31125  98.3132 120.1535 0040263 123.5904 236.9155 14.70662189 21442

JSON: /api/v1/satellites/31125 · /tle

For live sub-satellite position, see the globe view (requires WebGL).

§ Visibility from observer

Set your observer location to see the next 7 days of passes ≥ 10°. The values pass through the URL so the page stays shareable.

No JS? Fill the form by hand. The geolocation button needs JavaScript.